Nanortalik

KL  EN  DA
ASIAQ
Weather Now GREENLAND SURVEY
Updated [WGT/WGST] Temperature [°C] Wind [m/s] Air pressure [hPa] Relative humidity [%] Precipitation [mm]
Present Wind chill Speed Max
21.01 19:00-7,70,01,0 ⇓2,1998590,0
21.01 18:00-7,80,01,2 ⇘2,3999600,0
21.01 17:00-7,5-10,71,7 ⇘2,6998550,0
21.01 16:00-7,3-10,01,4 ⇘2,3999570,0
21.01 15:00-6,2-9,31,7 ⇓3,8999540,0
21.01 14:00-5,4-10,03,0 ⇓5,3999420,0
21.01 13:00-5,0-10,23,7 ⇓6,5999500,0
21.01 12:00-5,3-10,33,5 ⇓5,11000580,0
21.01 11:00-5,2-10,63,9 ⇓6,51000570,0
21.01 10:00-5,3-10,53,6 ⇙5,81000690,0
21.01 09:00-5,5-9,32,3 ⇓4,91000750,0
21.01 08:00-5,6-8,81,9 ⇓3,31000780,0
21.01 07:00-6,2-9,72,0 ⇘3,11000730,0
21.01 06:00-6,6-10,32,1 ⇘3,31000650,0
21.01 05:00-5,2-9,22,5 ⇘4,81001630,0
21.01 04:00-5,1-9,42,8 ⇘5,01001640,0
21.01 03:00-4,9-9,53,1 ⇘5,91000650,0
21.01 02:00-4,6-10,04,1 ⇘8,61000580,0
21.01 01:00-4,3-10,75,7 ⇒9,81001580,0
21.01 00:00-4,2-10,96,2 ⇒12,91000530,0
20.01 23:00-4,0-10,96,8 ⇒11,41000550,0
20.01 22:00-3,7-10,77,0 ⇒13,8999560,0
20.01 21:00-3,9-11,07,1 ⇘10,6998710,0
20.01 20:00-3,4-9,86,0 ⇒9,1998760,0
20.01 19:00-3,2-9,56,1 ⇒10,1997700,0
Position: (60.14111111,-45.23444444)

[Back]